User: anonymous   Login
Location: Unspecified
(0.0000°N, 0.0000°E)
Time: 08:31:32
(UTC+00:00)
Language:

CUBEBUG 2 - Orbit

View from above orbital plane
View from above orbital plane
View from above satellite
View from above satellite

Ground track
Ground track

The orbit data is extracted from the following two-line orbital elements,

1 39440U 13066AA  19345.54934138 +.00000139 +00000-0 +26499-4 0  9992
2 39440 097.6137 333.7121 0078991 233.1244 126.2708 14.75928802324717
Epoch (UTC): 11 December 2019 13:11:03
Eccentricity: 0.0078991
inclination: 97.6137°
perigee height: 587 km
apogee height: 697 km
right ascension of ascending node: 333.7121°
argument of perigee: 233.1244°
revolutions per day: 14.75928802
mean anomaly at epoch: 126.2708°
orbit number at epoch: 32471

The dashed part of the orbit path shows where the satellite is in the earth's shadow,  

DLR